| time (UTC) | temp C | wind direction | speed KPH | gust KPH | rain 1hr cm | rain 24hr cm | rain mn cm | humidity % | barometer mb |
| 20260902100003 | 18 | 190 | 16.1 | 24.1 | 0.00 | 5.03 | 0.05 | 84 | 1013.5 |
| 20260902095403 | 18 | 201 | 16.1 | 22.5 | 0.00 | 5.03 | 0.05 | 85 | 1013.4 |
| 20260902094503 | 17 | 179 | 17.7 | 27.4 | 0.00 | 5.03 | 0.05 | 84 | 1014.0 |
| 20260902093603 | 17 | 178 | 16.1 | 27.4 | 0.00 | 5.03 | 0.05 | 84 | 1014.1 |
| 20260902092703 | 17 | 208 | 14.5 | 19.3 | 0.00 | 5.03 | 0.05 | 84 | 1013.7 |
| 20260902091803 | 17 | 199 | 12.9 | 17.7 | 0.00 | 5.03 | 0.05 | 89 | 1013.7 |
| 20260902090903 | 17 | 172 | 12.9 | 19.3 | 0.00 | 5.03 | 0.05 | 91 | 1014.0 |
| 20260902090003 | 17 | 209 | 12.9 | 19.3 | 0.03 | 5.03 | 0.05 | 92 | 1014.1 |
| 20260902085403 | 17 | 130 | 11.3 | 17.7 | 0.03 | 5.03 | 0.05 | 93 | 1013.9 |
| 20260902084503 | 17 | 162 | 12.9 | 16.1 | 0.03 | 5.03 | 0.05 | 93 | 1013.9 |
| 20260902083603 | 16 | 230 | 9.7 | 19.3 | 0.03 | 5.03 | 0.05 | 93 | 1013.9 |
| 20260902082917 | 16 | 171 | 12.9 | 19.3 | 0.05 | 5.03 | 0.05 | 92 | 1014.0 |
| 20260902081803 | 16 | 220 | 12.9 | 17.7 | 0.05 | 5.03 | 0.05 | 92 | 1014.0 |
| 20260902080903 | 16 | 194 | 11.3 | 17.7 | 0.05 | 5.03 | 0.05 | 93 | 1014.0 |
| 20260902080217 | 16 | 218 | 12.9 | 17.7 | 0.03 | 5.00 | 0.03 | 94 | 1013.6 |
| 20260902075403 | 16 | 182 | 9.7 | 12.9 | 0.03 | 5.00 | 0.03 | 95 | 1014.0 |
| 20260902074503 | 16 | 193 | 12.9 | 17.7 | 0.03 | 5.00 | 0.03 | 95 | 1013.8 |
| 20260902073603 | 16 | 209 | 9.7 | 17.7 | 0.03 | 5.00 | 0.03 | 95 | 1014.1 |
| 20260902072703 | 16 | 168 | 8.0 | 12.9 | 0.00 | 4.98 | 0.00 | 96 | 1013.8 |
| 20260902071803 | 16 | 180 | 8.0 | 12.9 | 0.00 | 4.98 | 0.00 | 97 | 1013.7 |
| 20260902070903 | 16 | 180 | 6.4 | 9.7 | 0.00 | 4.98 | 0.00 | 100 | 1013.9 |
| 20260902070004 | 16 | 190 | 6.4 | 9.7 | 0.00 | 4.98 | 0.00 | 100 | 1013.7 |
| 20260902065403 | 16 | 172 | 8.0 | 9.7 | 0.00 | 4.98 | 0.00 | 100 | 1014.1 |
| 20260902064503 | 16 | 184 | 8.0 | 11.3 | 0.00 | 4.98 | 0.00 | 97 | 1013.9 |
| 20260902063603 | 16 | 170 | 6.4 | 12.9 | 0.00 | 4.98 | 0.00 | 97 | 1013.8 |
| 20260902062918 | 16 | 172 | 6.4 | 9.7 | 0.00 | 4.98 | 0.00 | 96 | 1013.9 |
| 20260902061803 | 16 | 144 | 4.8 | 11.3 | 0.00 | 4.98 | 0.00 | 96 | 1013.5 |
| 20260902060903 | 16 | 114 | 3.2 | 6.4 | 0.00 | 4.98 | 0.00 | 95 | 1013.6 |
| 20260902060003 | 16 | 185 | 3.2 | 6.4 | 0.00 | 4.98 | 0.00 | 95 | 1014.0 |
| 20260902055403 | 16 | 171 | 4.8 | 8.0 | 0.00 | 4.98 | 0.00 | 95 | 1014.0 |
| 20260902054503 | 16 | 157 | 4.8 | 8.0 | 0.00 | 4.98 | 0.00 | 94 | 1013.9 |
| 20260902053603 | 16 | 189 | 4.8 | 8.0 | 0.00 | 4.98 | 0.00 | 94 | 1013.9 |
| 20260902052703 | 16 | 188 | 6.4 | 8.0 | 0.00 | 4.98 | 0.00 | 95 | 1014.1 |
| 20260902052017 | 15 | 186 | 6.4 | 8.0 | 0.00 | 4.98 | 0.00 | 95 | 1013.9 |
| 20260902050903 | 15 | 162 | 8.0 | 12.9 | 0.00 | 4.98 | 0.00 | 96 | 1014.0 |
| 20260902050004 | 15 | 175 | 8.0 | 12.9 | 0.00 | 4.98 | 0.00 | 96 | 1014.0 |
| 20260902045403 | 15 | 170 | 6.4 | 11.3 | 0.00 | 4.98 | 0.00 | 96 | 1013.9 |
| 20260902044717 | 15 | 181 | 4.8 | 6.4 | 0.00 | 4.98 | 0.00 | 95 | 1014.0 |
| 20260902043603 | 15 | 139 | 3.2 | 3.2 | 0.00 | 4.98 | 0.00 | 95 | 1014.4 |
| 20260902042703 | 15 | 164 | 1.6 | 3.2 | 0.00 | 4.98 | 0.00 | 95 | 1014.2 |
| 20260902041803 | 15 | 159 | 1.6 | 4.8 | 0.00 | 4.98 | 0.00 | 94 | 1014.4 |
| 20260902040903 | 15 | 153 | 3.2 | 4.8 | 0.00 | 4.98 | 0.00 | 94 | 1014.2 |
| 20260902040217 | 15 | 159 | 3.2 | 6.4 | 0.00 | 4.98 | 0.00 | 94 | 1014.4 |
| 20260902035617 | 15 | 131 | 3.2 | 6.4 | 0.00 | 4.98 | 0.00 | 94 | 1014.5 |
| 20260902034503 | 15 | 162 | 1.6 | 3.2 | 0.00 | 4.98 | 0.00 | 94 | 1014.3 |
| 20260902033603 | 15 | 178 | 1.6 | 3.2 | 0.00 | 4.98 | 0.00 | 93 | 1014.6 |
| 20260902032703 | 15 | 161 | 3.2 | 6.4 | 0.00 | 4.98 | 0.00 | 93 | 1014.8 |
| 20260902031803 | 14 | 172 | 1.6 | 6.4 | 0.00 | 4.98 | 0.00 | 93 | 1014.7 |
| 20260902030903 | 14 | 0 | 0.0 | 0.0 | 0.00 | 4.98 | 0.00 | 92 | 1014.6 |
| 20260902030003 | 14 | 0 | 0.0 | 0.0 | 0.00 | 4.98 | 0.00 | 92 | 1015.0 |
| 20260902025403 | 14 | 0 | 0.0 | 0.0 | 0.00 | 4.98 | 0.00 | 92 | 1014.9 |
| 20260902024503 | 14 | 0 | 0.0 | 0.0 | 0.00 | 4.98 | 0.00 | 92 | 1015.0 |
| 20260902023603 | 14 | 0 | 0.0 | 0.0 | 0.00 | 4.98 | 0.00 | 91 | 1015.2 |
| 20260902022703 | 14 | 0 | 0.0 | 0.0 | 0.00 | 4.98 | 0.00 | 91 | 1015.2 |
| 20260902021803 | 14 | 183 | 0.0 | 1.6 | 0.00 | 4.98 | 0.00 | 91 | 1015.3 |
| 20260902020903 | 14 | 101 | 1.6 | 3.2 | 0.00 | 4.98 | 0.00 | 91 | 1015.1 |
| 20260902020003 | 14 | 135 | 1.6 | 3.2 | 0.00 | 4.98 | 0.00 | 91 | 1015.0 |
| 20260902015616 | 14 | 135 | 0.0 | 3.2 | 0.00 | 4.98 | 0.00 | 91 | 1015.1 |
| 20260902014503 | 14 | 150 | 0.0 | 1.6 | 0.00 | 4.98 | 0.00 | 91 | 1015.3 |
| 20260902013603 | 14 | 151 | 0.0 | 1.6 | 0.00 | 4.98 | 0.00 | 91 | 1015.4 |
| 20260902012703 | 14 | 178 | 3.2 | 3.2 | 0.00 | 4.98 | 0.00 | 91 | 1015.5 |
| 20260902011803 | 14 | 172 | 1.6 | 3.2 | 0.00 | 4.98 | 0.00 | 90 | 1015.9 |
| 20260902010903 | 14 | 172 | 1.6 | 3.2 | 0.00 | 4.98 | 0.00 | 89 | 1015.6 |
| 20260902010003 | 14 | 189 | 1.6 | 3.2 | 0.00 | 4.98 | 0.00 | 89 | 1015.4 |
| 20260902005618 | 14 | 154 | 1.6 | 3.2 | 0.00 | 4.98 | 0.00 | 89 | 1015.3 |
| 20260902004503 | 15 | 123 | 1.6 | 3.2 | 0.00 | 4.98 | 0.00 | 88 | 1015.4 |
| 20260902003603 | 15 | 112 | 1.6 | 3.2 | 0.00 | 4.98 | 0.00 | 88 | 1015.6 |
| 20260902002703 | 15 | 93 | 1.6 | 3.2 | 0.00 | 4.98 | 0.00 | 87 | 1015.8 |
| 20260902001803 | 15 | 131 | 1.6 | 3.2 | 0.00 | 4.98 | 0.00 | 87 | 1016.0 |
| 20260902000903 | 15 | 154 | 1.6 | 3.2 | 0.00 | 4.98 | 0.00 | 86 | 1015.9 |
| 20260902000003 | 15 | 126 | 1.6 | 3.2 | 0.00 | 4.98 | 0.00 | 86 | 1015.7 |
| 20260901235403 | 15 | 117 | 1.6 | 3.2 | 0.00 | 4.98 | 0.00 | 86 | 1016.2 |
| 20260901234503 | 15 | 96 | 0.0 | 1.6 | 0.00 | 4.98 | 0.00 | 85 | 1016.1 |
| 20260901233603 | 15 | 182 | 0.0 | 1.6 | 0.00 | 4.98 | 0.00 | 85 | 1016.0 |
| 20260901232703 | 15 | 178 | 1.6 | 3.2 | 0.00 | 4.98 | 0.00 | 85 | 1016.3 |
| 20260901231803 | 15 | 167 | 1.6 | 3.2 | 0.00 | 4.98 | 0.00 | 84 | 1016.1 |
| 20260901231116 | 15 | 107 | 0.0 | 1.6 | 0.00 | 4.98 | 0.00 | 83 | 1015.9 |
| 20260901230004 | 15 | 165 | 1.6 | 3.2 | 0.00 | 4.98 | 0.00 | 83 | 1016.0 |
| 20260901225403 | 15 | 161 | 1.6 | 3.2 | 0.00 | 4.98 | 0.00 | 83 | 1016.0 |
| 20260901224717 | 15 | 140 | 0.0 | 1.6 | 0.00 | 4.98 | 0.00 | 82 | 1016.1 |
| 20260901223818 | 15 | 180 | 1.6 | 3.2 | 0.00 | 4.98 | 0.00 | 81 | 1016.1 |
| 20260901222703 | 15 | 123 | 0.0 | 3.2 | 0.00 | 4.98 | 0.00 | 81 | 1016.0 |
| 20260901221803 | 15 | 170 | 1.6 | 3.2 | 0.00 | 4.98 | 0.00 | 81 | 1015.7 |
| 20260901220903 | 15 | 120 | 1.6 | 3.2 | 0.00 | 4.98 | 0.00 | 80 | 1015.7 |
| 20260901220003 | 15 | 90 | 1.6 | 3.2 | 0.00 | 4.98 | 0.00 | 80 | 1015.8 |
| 20260901215403 | 16 | 85 | 0.0 | 1.6 | 0.00 | 4.98 | 0.00 | 80 | 1016.1 |
| 20260901214503 | 16 | 90 | 0.0 | 1.6 | 0.00 | 4.98 | 0.00 | 79 | 1016.1 |
| 20260901213603 | 16 | 135 | 0.0 | 1.6 | 0.00 | 4.98 | 0.00 | 78 | 1015.9 |
| 20260901212703 | 16 | 133 | 0.0 | 1.6 | 0.00 | 4.98 | 0.00 | 78 | 1016.0 |
| 20260901211803 | 16 | 121 | 3.2 | 6.4 | 0.00 | 4.98 | 0.00 | 77 | 1015.9 |
| 20260901210903 | 16 | 295 | 3.2 | 4.8 | 0.00 | 4.98 | 0.00 | 77 | 1016.1 |
| 20260901210003 | 16 | 195 | 1.6 | 3.2 | 0.00 | 4.98 | 0.00 | 77 | 1016.2 |
| 20260901205616 | 16 | 176 | 1.6 | 4.8 | 0.00 | 4.98 | 0.00 | 77 | 1016.2 |
| 20260901204503 | 16 | 219 | 3.2 | 3.2 | 0.00 | 4.98 | 0.00 | 76 | 1015.8 |
| 20260901203817 | 16 | 195 | 3.2 | 6.4 | 0.00 | 4.98 | 0.00 | 76 | 1016.1 |
| 20260901202916 | 16 | 205 | 3.2 | 4.8 | 0.00 | 4.98 | 0.00 | 76 | 1016.2 |
| 20260901201803 | 16 | 168 | 4.8 | 6.4 | 0.00 | 4.98 | 0.00 | 77 | 1016.0 |
| 20260901200903 | 16 | 185 | 3.2 | 4.8 | 0.00 | 4.98 | 0.00 | 76 | 1016.2 |
| 20260901200003 | 16 | 180 | 3.2 | 6.4 | 0.00 | 4.98 | 0.00 | 76 | 1015.9 |
| 20260901195403 | 17 | 169 | 3.2 | 6.4 | 0.00 | 4.98 | 0.00 | 76 | 1016.0 |
| 20260901194503 | 17 | 255 | 4.8 | 9.7 | 0.00 | 4.98 | 0.00 | 76 | 1016.1 |
| 20260901193817 | 17 | 154 | 3.2 | 9.7 | 0.00 | 4.98 | 0.00 | 76 | 1015.9 |
| 20260901192918 | 17 | 206 | 3.2 | 6.4 | 0.00 | 4.98 | 0.00 | 75 | 1016.1 |
| 20260901191803 | 17 | 179 | 3.2 | 4.8 | 0.00 | 4.98 | 0.00 | 74 | 1015.8 |
| 20260901190903 | 17 | 191 | 3.2 | 6.4 | 0.00 | 4.98 | 0.00 | 74 | 1016.1 |
| 20260901190218 | 17 | 192 | 3.2 | 6.4 | 0.00 | 4.98 | 0.00 | 73 | 1015.9 |
| 20260901185403 | 17 | 172 | 4.8 | 6.4 | 0.00 | 4.98 | 0.00 | 73 | 1015.9 |
| 20260901184717 | 17 | 161 | 4.8 | 6.4 | 0.00 | 4.98 | 0.00 | 70 | 1015.7 |
| 20260901183603 | 17 | 232 | 4.8 | 8.0 | 0.00 | 4.98 | 0.00 | 67 | 1015.7 |
| 20260901182918 | 17 | 218 | 4.8 | 8.0 | 0.00 | 4.98 | 0.00 | 66 | 1015.9 |
| 20260901181803 | 18 | 148 | 3.2 | 6.4 | 0.00 | 4.98 | 0.00 | 65 | 1016.0 |
| 20260901180903 | 18 | 142 | 4.8 | 6.4 | 0.00 | 4.98 | 0.00 | 64 | 1015.7 |
| 20260901180003 | 18 | 106 | 3.2 | 6.4 | 0.00 | 4.98 | 0.00 | 64 | 1015.9 |
| 20260901175403 | 18 | 156 | 4.8 | 6.4 | 0.00 | 4.98 | 0.00 | 63 | 1015.9 |
| 20260901174503 | 18 | 319 | 6.4 | 6.4 | 0.00 | 4.98 | 0.00 | 63 | 1015.8 |
| 20260901173603 | 18 | 275 | 6.4 | 11.3 | 0.00 | 4.98 | 0.00 | 63 | 1015.8 |
| 20260901172703 | 18 | 241 | 6.4 | 8.0 | 0.00 | 4.98 | 0.00 | 63 | 1016.0 |
| 20260901171803 | 18 | 186 | 6.4 | 9.7 | 0.00 | 4.98 | 0.00 | 62 | 1015.8 |
| 20260901171118 | 18 | 203 | 8.0 | 9.7 | 0.00 | 4.98 | 0.00 | 62 | 1015.9 |
| 20260901170003 | 18 | 311 | 8.0 | 12.9 | 0.00 | 4.98 | 0.00 | 62 | 1015.7 |
| 20260901165403 | 19 | 149 | 9.7 | 12.9 | 0.00 | 4.98 | 0.00 | 61 | 1015.5 |
| 20260901164716 | 19 | 343 | 9.7 | 12.9 | 0.00 | 4.98 | 0.00 | 60 | 1015.5 |
| 20260901163603 | 19 | 149 | 3.2 | 6.4 | 0.00 | 4.98 | 0.00 | 65 | 1015.4 |
| 20260901162703 | 19 | 169 | 6.4 | 11.3 | 0.00 | 4.98 | 0.00 | 69 | 1015.6 |
| 20260901161803 | 19 | 176 | 8.0 | 12.9 | 0.00 | 4.98 | 0.00 | 69 | 1015.7 |
| 20260901160903 | 19 | 194 | 6.4 | 9.7 | 0.00 | 4.98 | 0.00 | 69 | 1015.6 |
| 20260901160003 | 19 | 173 | 6.4 | 6.4 | 0.00 | 4.98 | 0.00 | 70 | 1015.7 |
| 20260901155403 | 18 | 186 | 6.4 | 12.9 | 0.00 | 4.98 | 0.00 | 70 | 1016.0 |
| 20260901154503 | 18 | 193 | 6.4 | 12.9 | 0.00 | 4.98 | 0.00 | 70 | 1016.0 |
| 20260901153603 | 18 | 166 | 9.7 | 16.1 | 0.00 | 4.98 | 0.00 | 68 | 1015.9 |
| 20260901152917 | 19 | 265 | 8.0 | 11.3 | 0.00 | 4.98 | 0.00 | 66 | 1016.0 |
| 20260901151803 | 19 | 196 | 11.3 | 17.7 | 0.00 | 4.98 | 0.00 | 62 | 1015.8 |
| 20260901150903 | 20 | 183 | 9.7 | 14.5 | 0.00 | 4.98 | 0.00 | 61 | 1015.7 |
| 20260901150217 | 20 | 191 | 8.0 | 11.3 | 0.00 | 4.98 | 0.00 | 60 | 1015.9 |
| 20260901145403 | 20 | 161 | 8.0 | 11.3 | 0.00 | 4.98 | 0.00 | 62 | 1015.6 |
| 20260901144503 | 20 | 173 | 8.0 | 14.5 | 0.00 | 4.98 | 0.00 | 63 | 1015.8 |
| 20260901143603 | 20 | 181 | 11.3 | 17.7 | 0.00 | 4.98 | 0.00 | 63 | 1016.0 |
| 20260901142703 | 20 | 183 | 11.3 | 20.9 | 0.00 | 4.98 | 0.00 | 62 | 1016.1 |
| 20260901141803 | 20 | 187 | 11.3 | 19.3 | 0.00 | 4.98 | 0.00 | 63 | 1016.1 |
| 20260901141117 | 20 | 202 | 11.3 | 12.9 | 0.00 | 4.98 | 0.00 | 62 | 1016.2 |
| 20260901140003 | 19 | 193 | 8.0 | 12.9 | 0.00 | 4.98 | 0.00 | 63 | 1015.9 |
| 20260901135403 | 19 | 199 | 9.7 | 14.5 | 0.00 | 4.98 | 0.00 | 64 | 1016.2 |
| 20260901134503 | 18 | 217 | 8.0 | 14.5 | 0.00 | 4.98 | 0.00 | 62 | 1016.5 |
| 20260901133603 | 18 | 182 | 9.7 | 17.7 | 0.00 | 4.98 | 0.00 | 62 | 1016.0 |
| 20260901132703 | 19 | 221 | 11.3 | 17.7 | 0.00 | 4.98 | 0.00 | 61 | 1016.3 |
| 20260901131803 | 20 | 163 | 8.0 | 11.3 | 0.00 | 4.98 | 0.00 | 59 | 1015.9 |
| 20260901130903 | 21 | 189 | 11.3 | 17.7 | 0.00 | 4.98 | 0.00 | 60 | 1016.1 |
| 20260901130003 | 20 | 182 | 11.3 | 17.7 | 0.00 | 4.98 | 0.00 | 61 | 1015.9 |
| 20260901125403 | 20 | 191 | 9.7 | 16.1 | 0.00 | 4.98 | 0.00 | 61 | 1016.0 |
| 20260901124504 | 20 | 181 | 9.7 | 14.5 | 0.00 | 4.98 | 0.00 | 60 | 1016.2 |
| 20260901123603 | 20 | 197 | 9.7 | 16.1 | 0.00 | 4.98 | 0.00 | 61 | 1016.4 |
| 20260901122703 | 20 | 186 | 8.0 | 16.1 | 0.00 | 4.98 | 0.00 | 60 | 1016.3 |
| 20260901121803 | 20 | 189 | 8.0 | 12.9 | 0.00 | 4.98 | 0.00 | 55 | 1016.1 |
| 20260901120903 | 21 | 23 | 4.8 | 6.4 | 0.00 | 4.98 | 0.00 | 52 | 1016.2 |
| 20260901120003 | 20 | 306 | 6.4 | 8.0 | 2.49 | 4.98 | 0.00 | 52 | 1016.3 |
| 20260901115403 | 21 | 226 | 6.4 | 9.7 | 4.98 | 4.98 | 0.00 | 51 | 1016.2 |
| 20260901114503 | 22 | 249 | 8.0 | 11.3 | 4.98 | 4.98 | 0.00 | 48 | 1016.3 |
| 20260901113603 | 22 | 246 | 6.4 | 8.0 | 4.98 | 4.98 | 0.00 | 48 | 1016.2 |
| 20260901112703 | 22 | 218 | 8.0 | 11.3 | 4.98 | 4.98 | 0.00 | 50 | 1016.3 |
| 20260901112016 | 21 | 305 | 8.0 | 11.3 | 4.98 | 4.98 | 0.00 | 50 | 1016.3 |
| 20260901110903 | 21 | 329 | 8.0 | 11.3 | 4.98 | 4.98 | 0.00 | 51 | 1016.3 |
| 20260901110217 | 21 | 331 | 4.8 | 11.3 | 4.98 | 4.98 | 0.00 | 52 | 1016.3 |
| 20260901105403 | 21 | 327 | 9.7 | 14.5 | 0.00 | 0.00 | 0.00 | 53 | 1016.4 |
| 20260901104503 | 21 | 254 | 6.4 | 9.7 | 0.00 | 0.00 | 0.00 | 56 | 1016.6 |
| 20260901103603 | 20 | 103 | 8.0 | 11.3 | 0.00 | 0.00 | 0.00 | 56 | 1016.4 |
| 20260901102703 | 20 | 215 | 6.4 | 11.3 | 0.00 | 0.00 | 0.00 | 57 | 1016.7 |
| 20260901101803 | 21 | 223 | 6.4 | 14.5 | 0.00 | 0.00 | 0.00 | 56 | 1016.6 |
| 20260901100903 | 21 | 145 | 6.4 | 16.1 | 0.00 | 0.00 | 0.00 | 60 | 1016.6 |